Change the Weather History Date:

Sunday, April 27, 2014

  Actual Average Record
Temperature  
Mean Temperature 47 °F -  
Max Temperature 59 °F 54 °F 69 °F (2005)
Min Temperature 35 °F 31 °F 19 °F (1955)
Degree Days  
Heating Degree Days 18    
Moisture  
Dew Point 22 °F    
Average Humidity 37    
Maximum Humidity 60    
Minimum Humidity 20    
Precipitation  
Precipitation 0.00 in - - ()
Sea Level Pressure  
Sea Level Pressure 29.41 in    
Wind  
Wind Speed 5 mph (ESE)    
Max Wind Speed 13 mph    
Max Gust Speed 21 mph    
Visibility 10 miles    
Events      
Averages and records for this station are not official NWS values.
T = Trace of Precipitation, MM = Missing Value Source: NWS Daily Summary

Daily Weather History Graph

Daily Weather History Graph

Search for Another Location

Airport or City:

Trip Planner

Search our weather history database for the weather conditions in past years. The results will help you decide how hot, cold, wet, or windy it might be!

Date:

Astronomy

Apr. 27, 2014 Rise Set
Actual Time 5:58 AM AKDT 9:54 PM AKDT
Civil Twilight 5:03 AM AKDT 10:50 PM AKDT
Nautical Twilight 3:35 AM AKDT 12:21 AM AKDT
Astronomical Twilight Sun does not rise Sun does not rise
Moon 5:39 AM AKDT (4/27) 8:16 PM AKDT (4/27)
Length of Visible Light 17h 47m
Length of Day
15h 56m
Waning Crescent, 2% of the Moon is Illuminated
Apr 27
Waning Crescent
Apr 28
New
May 6
First Quarter
May 14
Full
May 21
Last Quarter

Hourly Weather History & Observations

Time (AKDT) Temp. Windchill Dew Point Humidity Pressure Visibility Wind Dir Wind Speed Gust Speed Precip Events Conditions
12:16 AM 42.8 °F 38.6 °F 24.8 °F 49% 29.38 in 10.0 mi ENE 6.9 mph - N/A   Clear
12:36 AM 41.0 °F 36.4 °F 24.8 °F 53% 29.38 in 10.0 mi NE 6.9 mph - N/A   Clear
12:56 AM 39.2 °F 37.0 °F 24.8 °F 56% 29.38 in 10.0 mi ENE 3.5 mph - N/A   Clear
1:16 AM 37.4 °F - 24.8 °F 60% 29.38 in 10.0 mi Calm Calm - N/A   Clear
1:36 AM 37.4 °F - 24.8 °F 60% 29.38 in 10.0 mi Calm Calm - N/A   Clear
1:56 AM 37.4 °F - 24.8 °F 60% 29.38 in 10.0 mi Calm Calm - N/A   Clear
2:16 AM 37.4 °F - 23.0 °F 56% 29.38 in 10.0 mi Calm Calm - N/A   Clear
2:36 AM 39.2 °F 37.0 °F 21.2 °F 49% 29.38 in 10.0 mi NNE 3.5 mph - N/A   Clear
2:56 AM 37.4 °F 33.8 °F 21.2 °F 52% 29.38 in 10.0 mi ENE 4.6 mph - N/A   Clear
3:16 AM 37.4 °F 32.8 °F 21.2 °F 52% 29.38 in 10.0 mi ENE 5.8 mph - N/A   Clear
3:36 AM 39.2 °F 35.9 °F 21.2 °F 49% 29.38 in 10.0 mi ENE 4.6 mph - N/A   Clear
3:56 AM 37.4 °F 32.8 °F 21.2 °F 52% 29.38 in 10.0 mi NE 5.8 mph - N/A   Partly Cloudy
4:16 AM 35.6 °F - 19.4 °F 52% 29.38 in 10.0 mi Calm Calm - N/A   Partly Cloudy
4:36 AM 37.4 °F 33.8 °F 19.4 °F 48% 29.38 in 10.0 mi East 4.6 mph - N/A   Clear
4:56 AM 37.4 °F 33.8 °F 19.4 °F 48% 29.39 in 10.0 mi East 4.6 mph - N/A   Clear
5:16 AM 39.2 °F 37.0 °F 19.4 °F 45% 29.39 in 10.0 mi East 3.5 mph - N/A   Clear
5:36 AM 37.4 °F - 19.4 °F 48% 29.39 in 10.0 mi Calm Calm - N/A   Clear
5:56 AM 39.2 °F 34.2 °F 19.4 °F 45% 29.40 in 10.0 mi ENE 6.9 mph - N/A   Clear
6:16 AM 39.2 °F 35.9 °F 19.4 °F 45% 29.39 in 10.0 mi East 4.6 mph - N/A   Clear
6:36 AM 39.2 °F 34.2 °F 19.4 °F 45% 29.39 in 10.0 mi ENE 6.9 mph - N/A   Clear
6:56 AM 39.2 °F 35.0 °F 19.4 °F 45% 29.40 in 10.0 mi East 5.8 mph - N/A   Clear
7:16 AM 39.2 °F 35.0 °F 19.4 °F 45% 29.39 in 10.0 mi ENE 5.8 mph - N/A   Clear
7:36 AM 41.0 °F 38.0 °F 19.4 °F 42% 29.39 in 10.0 mi ENE 4.6 mph - N/A   Clear
7:56 AM 42.8 °F 39.3 °F 19.4 °F 39% 29.40 in 10.0 mi ENE 5.8 mph - N/A   Clear
8:16 AM 44.6 °F 42.2 °F 19.4 °F 37% 29.39 in 10.0 mi East 4.6 mph - N/A   Clear
8:36 AM 44.6 °F - 21.2 °F 39% 29.39 in 10.0 mi Calm Calm - N/A   Clear
8:56 AM 46.4 °F 43.5 °F 19.4 °F 34% 29.40 in 10.0 mi ENE 5.8 mph - N/A   Clear
9:16 AM 46.4 °F 44.3 °F 19.4 °F 34% 29.40 in 10.0 mi East 4.6 mph - N/A   Clear
9:36 AM 46.4 °F 43.5 °F 19.4 °F 34% 29.40 in 10.0 mi ENE 5.8 mph - N/A   Clear
9:56 AM 48.2 °F - 21.2 °F 34% 29.40 in 10.0 mi East 5.8 mph - N/A   Clear
10:16 AM 48.2 °F - 21.2 °F 34% 29.40 in 10.0 mi Calm Calm - N/A   Clear
10:36 AM 50.0 °F - 19.4 °F 30% 29.39 in 10.0 mi Calm Calm - N/A   Clear
10:56 AM 51.8 °F - 21.2 °F 30% 29.40 in 10.0 mi Calm Calm - N/A   Clear
11:16 AM 51.8 °F - 21.2 °F 30% 29.40 in 10.0 mi East 3.5 mph - N/A   Clear
11:36 AM 51.8 °F - 21.2 °F 30% 29.40 in 10.0 mi East 6.9 mph - N/A   Clear
11:56 AM 53.6 °F - 21.2 °F 28% 29.40 in 10.0 mi SE 6.9 mph - N/A   Clear
12:16 PM 53.6 °F - 21.2 °F 28% 29.40 in 10.0 mi East 5.8 mph - N/A   Clear
12:36 PM 55.4 °F - 21.2 °F 26% 29.40 in 10.0 mi ENE 5.8 mph - N/A   Clear
12:56 PM 55.4 °F - 24.8 °F 31% 29.40 in 10.0 mi Calm Calm - N/A   Clear
1:16 PM 57.2 °F - 24.8 °F 29% 29.40 in 10.0 mi South 5.8 mph - N/A   Clear
1:36 PM 57.2 °F - 24.8 °F 29% 29.39 in 10.0 mi SSW 5.8 mph - N/A   Clear
1:56 PM 57.2 °F - 23.0 °F 27% 29.39 in 10.0 mi SSW 5.8 mph - N/A   Clear
2:16 PM 57.2 °F - 21.2 °F 25% 29.39 in 10.0 mi SW 5.8 mph - N/A   Clear
2:36 PM 57.2 °F - 21.2 °F 25% 29.39 in 10.0 mi WSW 3.5 mph - N/A   Clear
2:56 PM 57.2 °F - 21.2 °F 25% 29.39 in 10.0 mi WSW 6.9 mph - N/A   Scattered Clouds
3:16 PM 59.0 °F - 21.2 °F 23% 29.39 in 10.0 mi WSW 6.9 mph - N/A   Scattered Clouds
3:36 PM 57.2 °F - 21.2 °F 25% 29.39 in 10.0 mi WNW 10.4 mph - N/A   Scattered Clouds
3:56 PM 59.0 °F - 21.2 °F 23% 29.39 in 10.0 mi SW 6.9 mph - N/A   Mostly Cloudy
4:16 PM 57.2 °F - 21.2 °F 25% 29.39 in 10.0 mi WNW 8.1 mph - N/A   Scattered Clouds
4:36 PM 57.2 °F - 19.4 °F 23% 29.39 in 10.0 mi West 6.9 mph - N/A   Partly Cloudy
4:56 PM 59.0 °F - 19.4 °F 22% 29.39 in 10.0 mi West 9.2 mph 18.4 mph N/A   Scattered Clouds
5:16 PM 59.0 °F - 19.4 °F 22% 29.39 in 10.0 mi West 10.4 mph 16.1 mph N/A   Partly Cloudy
5:36 PM 59.0 °F - 17.6 °F 20% 29.39 in 10.0 mi WSW 10.4 mph 16.1 mph N/A   Clear
5:56 PM 59.0 °F - 17.6 °F 20% 29.40 in 10.0 mi WSW 10.4 mph - N/A   Mostly Cloudy
6:16 PM 59.0 °F - 17.6 °F 20% 29.40 in 10.0 mi SSW 10.4 mph 17.3 mph N/A   Mostly Cloudy
6:36 PM 55.4 °F - 24.8 °F 31% 29.40 in 10.0 mi SW 12.7 mph 20.7 mph N/A   Partly Cloudy
6:56 PM 55.4 °F - 24.8 °F 31% 29.41 in 10.0 mi SSW 12.7 mph 19.6 mph N/A   Partly Cloudy
7:16 PM 53.6 °F - 24.8 °F 33% 29.42 in 10.0 mi SSW 8.1 mph 17.3 mph N/A   Clear
7:36 PM 53.6 °F - 24.8 °F 33% 29.42 in 10.0 mi SSW 8.1 mph 18.4 mph N/A   Clear
7:56 PM 53.6 °F - 24.8 °F 33% 29.43 in 10.0 mi SSW 10.4 mph 17.3 mph N/A   Clear
8:16 PM 53.6 °F - 24.8 °F 33% 29.43 in 10.0 mi SSW 8.1 mph - N/A   Scattered Clouds
8:36 PM 53.6 °F - 24.8 °F 33% 29.44 in 10.0 mi South 9.2 mph - N/A   Overcast
8:56 PM 53.6 °F - 24.8 °F 33% 29.45 in 10.0 mi SW 8.1 mph - N/A   Mostly Cloudy
9:16 PM 51.8 °F - 23.0 °F 33% 29.46 in 10.0 mi Calm Calm - N/A   Partly Cloudy
9:36 PM 51.8 °F - 24.8 °F 35% 29.47 in 10.0 mi Calm Calm - N/A   Clear
9:56 PM 51.8 °F - 23.0 °F 33% 29.48 in 10.0 mi North 3.5 mph - N/A   Mostly Cloudy
10:16 PM 48.2 °F - 24.8 °F 40% 29.49 in 10.0 mi North 4.6 mph - N/A   Mostly Cloudy
10:36 PM 46.4 °F - 28.4 °F 50% 29.49 in 10.0 mi Calm Calm - N/A   Mostly Cloudy
10:56 PM 46.4 °F - 24.8 °F 43% 29.50 in 10.0 mi Calm Calm - N/A   Partly Cloudy
11:16 PM 44.6 °F 43.1 °F 24.8 °F 46% 29.50 in 10.0 mi ESE 3.5 mph - N/A   Clear
11:36 PM 44.6 °F - 24.8 °F 46% 29.51 in 10.0 mi Calm Calm - N/A   Clear
11:56 PM 41.0 °F 39.0 °F 24.8 °F 53% 29.52 in 10.0 mi East 3.5 mph - N/A   Clear